Regional Weather Roundup
Issued by NWS Upton, NY

Current Version | Previous Version | Text Only | Print | Product List | Glossary On
Versions: 1 2 3 4 5 6 7 8 9 10 11 12 13 14 15 16 17 18 19 20 21 22 23 24 25 26 27 28 29 30 31 32 33 34 35 36 37 38 39 40 41 42 43 44 45 46 47 48 49 50
000
ASUS41 KOKX 281107
RWROKX

REGIONAL WEATHER ROUNDUP
NATIONAL WEATHER SERVICE NEW YORK NY
700 AM EDT SAT MAR 28 2015

NOTE: "FAIR" INDICATES FEW OR NO CLOUDS BELOW 12,000 FEET WITH NO
SIGNIFICANT WEATHER AND/OR OBSTRUCTIONS TO VISIBILITY.

NYZ071-072-176-178-NJZ106-104-281200-
NEW YORK CITY METRO AREA


CITY           SKY/WX    TMP DP  RH WIND       PRES   REMARKS
CENTRAL PARK   CLOUDY    35  19  52 NW7       29.80R WCI  29
LAGUARDIA APRT CLOUDY    36  20  52 NW13      29.78R WCI  27
KENNEDY INTL   CLOUDY    37  19  48 N21       29.77R WCI  26
NEWARK/LIBERTY CLOUDY    35  19  52 N17G24    29.79R WCI  25
BRNX BOT. GARD   N/A    N/A N/A N/A NW3       29.79R
TETERBORO      CLOUDY    34  19  54 N10G18    29.78R WCI  26
$$

NYZ177-179-078>081-281200-
LONG ISLAND NEW YORK

CITY           SKY/WX    TMP DP  RH WIND       PRES   REMARKS
FARMINGDALE    CLOUDY    36  23  59 N12       29.75R WCI  28
ISLIP          FLURRIES  35  27  72 N14       29.72R WCI  26
SHIRLEY        LGT SNOW  33  30  88 N13       29.73S FOG     WCI  24
WESTHAMPTON    LGT SNOW  33  30  88 N9        29.72S VSB 1   WCI  25
MONTAUK POINT    N/A     36  33  89 NW8       29.71R WCI  30
$$

NYZ052-065-067-281200-
HUDSON VALLEY

CITY           SKY/WX    TMP DP  RH WIND       PRES   REMARKS
WHITE PLAINS   CLOUDY    33  21  61 NW22G28   29.75R WCI  21
NEWBURGH       MOCLDY    30  21  69 N12       29.80R WCI  21
MONTGOMERY     CLOUDY    30  18  60 NW7       29.80R WCI  23
POUGHKEEPSIE   CLOUDY    32  20  61 N5        29.81R WCI  27
ALBANY         FLURRIES  28  20  71 NW12      29.86R WCI  18
$$

NJZ001-105-106-008-010-013-015-019>022-104-281200-
NEW JERSEY

CITY           SKY/WX    TMP DP  RH WIND       PRES   REMARKS
NEWARK/LIBERTY CLOUDY    35  19  52 N17G24    29.79R WCI  25
TETERBORO      CLOUDY    34  19  54 N10G18    29.78R WCI  26
CALDWELL       CLOUDY    32  17  54 VRB6      29.81R WCI  26
MORRISTOWN     PTCLDY    32  21  64 N9G18     29.81R WCI  24
SOMERVILLE     MOCLDY    32  17  54 NW10      29.80R WCI  24
SUSSEX         CLEAR     29  16  58 NE6       29.82R WCI  23
ANDOVER          N/A     28  17  63 VRB5      29.82R WCI  23
TRENTON        MOCLDY    33  19  56 N6        29.80R WCI  28
MILLVILLE      CLOUDY    36  25  64 NW8       29.81R WCI  30
ATLANTIC CITY  CLOUDY    35  23  61 NW12      29.80R WCI  27
WRIGHTSTOWN    CLOUDY    33  21  60 NW16      29.78R WCI  22
TOMS RIVER     CLOUDY    34  21  60 NW13G18   29.79R WCI  25
BELMAR         CLOUDY    36  19  51 NW14      29.77R WCI  27
$$

PAZ047>061-062-071-281200-
EASTERN PENNSYLVANIA

CITY           SKY/WX    TMP DP  RH WIND       PRES   REMARKS
PHILADELPHIA   MOCLDY    35  19  52 N16G28    29.83R WCI  25
ALLENTOWN      CLOUDY    31  18  58 N15       29.84R WCI  20
SCRANTON       CLOUDY    27  15  61 N10       29.85R WCI  17
$$

CTZ002-004>006-009-010-012-RIZ004-006-007-MAZ004-011-015-281200-
SOUTHERN NEW ENGLAND
 IN CT

CITY           SKY/WX    TMP DP  RH WIND       PRES   REMARKS
BRADLEY INTL   FLURRIES  36  27  69 N10       29.73S WCI  28
HARTFORD       CLOUDY    36  27  69 N12G20    29.74S WCI  28
DANBURY        CLOUDY    32  21  64 N8        29.78R WCI  25
WTRBRY/OXFORD  CLOUDY    32  19  59 N15G23    29.74R WCI  22
BRIDGEPORT     MIX PCPN  36  26  67 N13       29.74R WCI  27
MERIDEN        CLOUDY    36  26  67 NW7       29.74R WCI  30
NEW HAVEN      CLOUDY    36  27  69 N8        29.73R WCI  30
CHESTER        MIX PCPN  36  32  87 N12       29.71R WCI  27
GROTON         LGT RAIN  35  34  96 N9        29.71R WCI  28
WILLIMANTIC    CLOUDY    36  29  75 N5        29.72R WCI  32

 IN RI

CITY           SKY/WX    TMP DP  RH WIND       PRES   REMARKS
PROVIDENCE     LGT RAIN  37  33  85 N12       29.70S WCI  29
BLOCK ISLAND   CLOUDY    37  34  87 N7        29.68R WCI  32
WESTERLY       LGT RAIN  35  33  92 N6        29.70S WCI  30

 IN MA

CITY           SKY/WX    TMP DP  RH WIND       PRES   REMARKS
BOSTON         FLURRIES  36  30  80 NE20      29.73S WCI  25
WORCESTER      CLOUDY    34  26  72 N9        29.69R WCI  27
WESTFIELD      CLOUDY    35  26  69 N10       29.73S WCI  27
PROVINCETOWN   CLOUDY    37  36  93 NE8       29.71R WCI  31
NANTUCKET      LGT RAIN  38  35  89 NE15      29.65S WCI  29
$$

ANZ330-335-338-340-345-350-353-355-281200-
COASTAL MARINE OBSERVATIONS


STATION/POSITION TIME  SKY/WX   TEMP    WIND        PRES    VSBY  WAVE
                                AIR SEA DIR/SP/G                  HT/PER
                 (UTC)          (F)     (DEG/KT/KT) (MB)    (MI)  (FT/S)
NY HARB ENTRANCE 1050            37 38  340/ 23/ 27 1006.6          4/11
4S FIRE IS       1003               36                N/A           5/12
20S FIRE ISLAND  0950               38              1006.6          5/11
23SW MTP         0950                                 N/A           8/11
HUDSON CANYON    NOT AVBL
EXECUTION ROCKS  NOT AVBL
WESTERN LI SOUND NOT AVBL
CENTRAL LI SOUND NOT AVBL
EASTERN LI SOUND NOT AVBL
ROBBINS REEF     1000            36     330/  9/ 13 1007.0
$$


>>>>>>>>>>>>>>>>>>>>>>>>>>>> KEY <<<<<<<<<<<<<<<<<<<<<<<<<<<
>                                                          <
>     SKY/WX - SKY CONDITION/PRESENT WEATHER               <
>     TMP    - TEMPERATURE IN FAHRENHEIT                   <
>     DP     - DEWPOINT IN FAHRENHEIT                      <
>     RH     - RELATIVE HUMIDITY IN PERCENT                <
>     WIND   - DIRECTION AND SPEED IN MPH                  <
>     PRES   - MEAN SEA LEVEL PRESSURE IN INCHES OF HG     <
>     WCI    - WIND CHILL INDEX                            <
>     VSB    - VISIBILITY IN MILES                         <
>     HX     - HEAT INDEX                                  <
>     TC     - TEMPERATURE IN CELSIUS                      <
>     VRB    - VARIABLE WIND DIRECTION                     <
>                                                          <
>>>>>>>>>>>>>>>>>>>>>>>>>>>> KEY <<<<<<<<<<<<<<<<<<<<<<<<<<<




USA.gov is the U.S. government's official web portal to all federal, state and local government web resources and services.